| time (UTC) | temp F | wind direction | speed knots | gust knots | rain 1hr in | rain 24hr in | rain mn in | humidity % | barometer mb |
| 20260508043020 | 45 | 39 | 1.7 | 6.1 | 0.00 | 0.99 | 0.00 | 99 | 1001.5 |
| 20260508041519 | 44 | 67 | 2.6 | 6.1 | 0.00 | 0.99 | 0.00 | 99 | 1001.4 |
| 20260508040019 | 44 | 81 | 4.3 | 8.7 | 0.00 | 0.99 | 0.00 | 99 | 1001.4 |
| 20260508034518 | 45 | 53 | 0.0 | 6.1 | 0.00 | 0.99 | 0.00 | 99 | 1001.6 |
| 20260508033018 | 46 | 45 | 2.6 | 5.2 | 0.00 | 0.99 | 0.00 | 99 | 1001.5 |
| 20260508031508 | 47 | 79 | 6.1 | 7.8 | 0.00 | 0.99 | 0.00 | 99 | 1001.6 |
| 20260508030006 | 48 | 34 | 2.6 | 8.7 | 0.00 | 0.99 | 0.99 | 99 | 1001.5 |
| 20260508024505 | 49 | 5 | 1.7 | 4.3 | 0.00 | 0.99 | 0.99 | 100 | 1001.7 |
| 20260508023008 | 49 | 51 | 2.6 | 7.0 | 0.00 | 0.99 | 0.99 | 100 | 1001.3 |
| 20260508021503 | 48 | 49 | 0.0 | 6.1 | 0.00 | 0.99 | 0.99 | 100 | 1001.4 |
| 20260508020103 | 49 | 24 | 0.9 | 5.2 | 0.00 | 0.99 | 0.99 | 100 | 1001.3 |
| 20260508014505 | 49 | 152 | 2.6 | 6.1 | 0.00 | 0.99 | 0.99 | 100 | 1001.3 |
| 20260508013001 | 49 | 359 | 3.5 | 7.8 | 0.00 | 0.99 | 0.99 | 100 | 1001.0 |
| 20260508011502 | 51 | 129 | 4.3 | 9.6 | 0.00 | 0.99 | 0.99 | 100 | 1000.6 |
| 20260508010059 | 49 | 301 | 2.6 | 7.8 | 0.00 | 0.99 | 0.99 | 100 | 1000.7 |
| 20260508004600 | 48 | 250 | 0.9 | 2.6 | 0.00 | 0.99 | 0.99 | 100 | 1001.1 |
| 20260508003105 | 47 | 249 | 0.0 | 1.7 | 0.00 | 0.99 | 0.99 | 100 | 1001.3 |
| 20260508001556 | 46 | 249 | 0.0 | 1.7 | 0.00 | 0.99 | 0.99 | 100 | 1001.5 |
| 20260508000054 | 46 | 208 | 1.7 | 5.2 | 0.00 | 0.99 | 0.99 | 99 | 1001.5 |
| 20260507234554 | 48 | 212 | 1.7 | 4.3 | 0.00 | 0.99 | 0.99 | 99 | 1001.4 |
| 20260507233054 | 49 | 192 | 1.7 | 8.7 | 0.00 | 0.99 | 0.99 | 100 | 1001.5 |
| 20260507231558 | 49 | 189 | 0.9 | 3.5 | 0.00 | 0.99 | 0.99 | 99 | 1001.5 |
| 20260507230053 | 49 | 191 | 3.5 | 7.8 | 0.00 | 0.99 | 0.99 | 100 | 1001.4 |
| 20260507224600 | 47 | 175 | 4.3 | 7.8 | 0.00 | 0.99 | 0.99 | 99 | 1001.7 |
| 20260507223051 | 48 | 185 | 5.2 | 10.4 | 0.00 | 0.99 | 0.99 | 99 | 1001.5 |
| 20260507221550 | 49 | 200 | 3.5 | 8.7 | 0.00 | 0.99 | 0.99 | 99 | 1001.7 |
| 20260507220049 | 50 | 208 | 5.2 | 9.6 | 0.00 | 0.99 | 0.99 | 99 | 1002.0 |
| 20260507214549 | 50 | 210 | 3.5 | 8.7 | 0.02 | 0.99 | 0.99 | 99 | 1002.0 |
| 20260507213051 | 50 | 231 | 1.7 | 7.0 | 0.08 | 0.99 | 0.99 | 100 | 1001.7 |
| 20260507211551 | 46 | 228 | 0.9 | 3.5 | 0.15 | 0.99 | 0.99 | 99 | 1002.0 |
| 20260507210111 | 46 | 226 | 0.0 | 7.0 | 0.23 | 0.99 | 0.99 | 98 | 1001.7 |
| 20260507204550 | 46 | 175 | 1.7 | 5.2 | 0.30 | 0.98 | 0.98 | 98 | 1002.2 |
| 20260507203044 | 50 | 202 | 1.7 | 7.0 | 0.33 | 0.91 | 0.91 | 99 | 1002.2 |
| 20260507201542 | 48 | 198 | 3.5 | 7.0 | 0.35 | 0.84 | 0.84 | 98 | 1002.9 |
| 20260507200052 | 48 | 222 | 5.2 | 11.3 | 0.37 | 0.76 | 0.76 | 97 | 1003.4 |
| 20260507194538 | 50 | 233 | 4.3 | 9.6 | 0.36 | 0.67 | 0.67 | 97 | 1003.7 |
| 20260507193102 | 52 | 175 | 4.3 | 10.4 | 0.35 | 0.57 | 0.57 | 97 | 1004.1 |
| 20260507191536 | 54 | 207 | 7.8 | 12.2 | 0.31 | 0.49 | 0.49 | 97 | 1004.1 |
| 20260507190038 | 54 | 214 | 6.1 | 11.3 | 0.24 | 0.39 | 0.39 | 97 | 1004.0 |
| 20260507184533 | 55 | 170 | 7.0 | 13.0 | 0.14 | 0.30 | 0.30 | 97 | 1004.1 |
| 20260507183038 | 54 | 175 | 4.3 | 9.6 | 0.07 | 0.23 | 0.23 | 96 | 1004.4 |
| 20260507181531 | 55 | 233 | 3.5 | 9.6 | 0.02 | 0.17 | 0.17 | 96 | 1004.3 |
| 20260507180031 | 55 | 226 | 4.3 | 14.8 | 0.00 | 0.16 | 0.16 | 96 | 1004.2 |
| 20260507174529 | 56 | 238 | 6.1 | 12.2 | 0.00 | 0.16 | 0.16 | 96 | 1004.1 |
| 20260507173028 | 55 | 254 | 7.0 | 16.5 | 0.00 | 0.16 | 0.16 | 96 | 1004.2 |
| 20260507171526 | 55 | 212 | 8.7 | 17.4 | 0.00 | 0.16 | 0.16 | 96 | 1004.6 |
| 20260507170025 | 53 | 201 | 7.8 | 13.0 | 0.00 | 0.16 | 0.16 | 94 | 1004.8 |
| 20260507164522 | 54 | 216 | 9.6 | 15.6 | 0.00 | 0.16 | 0.16 | 95 | 1005.1 |
| 20260507163019 | 53 | 204 | 8.7 | 18.2 | 0.00 | 0.16 | 0.16 | 94 | 1005.5 |
| 20260507161520 | 55 | 185 | 7.0 | 17.4 | 0.00 | 0.16 | 0.16 | 94 | 1006.2 |
| 20260507160027 | 56 | 212 | 11.3 | 19.1 | 0.00 | 0.16 | 0.16 | 94 | 1006.6 |
| 20260507154515 | 55 | 208 | 11.3 | 18.2 | 0.00 | 0.16 | 0.16 | 95 | 1007.0 |
| 20260507153018 | 56 | 193 | 8.7 | 18.2 | 0.00 | 0.16 | 0.16 | 96 | 1007.3 |
| 20260507151611 | 55 | 223 | 11.3 | 17.4 | 0.00 | 0.16 | 0.16 | 98 | 1007.3 |
| 20260507150010 | 51 | 194 | 7.0 | 15.6 | 0.00 | 0.16 | 0.16 | 97 | 1007.6 |
| 20260507144513 | 52 | 233 | 7.8 | 16.5 | 0.00 | 0.16 | 0.16 | 97 | 1007.9 |
| 20260507143006 | 52 | 251 | 10.4 | 16.5 | 0.00 | 0.16 | 0.16 | 96 | 1008.5 |
| 20260507141504 | 53 | 204 | 9.6 | 16.5 | 0.00 | 0.16 | 0.16 | 98 | 1008.6 |
| 20260507140001 | 50 | 218 | 7.0 | 13.9 | 0.00 | 0.16 | 0.16 | 98 | 1008.8 |
| 20260507134609 | 50 | 206 | 6.1 | 14.8 | 0.01 | 0.16 | 0.16 | 96 | 1008.7 |
| 20260507133108 | 55 | 239 | 9.6 | 21.7 | 0.01 | 0.16 | 0.16 | 98 | 1009.0 |
| 20260507131557 | 54 | 264 | 9.6 | 17.4 | 0.01 | 0.16 | 0.16 | 99 | 1009.1 |
| 20260507130054 | 54 | 196 | 6.1 | 13.0 | 0.02 | 0.16 | 0.16 | 100 | 1009.0 |
| 20260507124553 | 52 | 226 | 5.2 | 12.2 | 0.06 | 0.15 | 0.15 | 100 | 1009.1 |
| 20260507123052 | 51 | 189 | 6.1 | 12.2 | 0.09 | 0.15 | 0.15 | 99 | 1009.5 |
| 20260507121546 | 51 | 229 | 5.2 | 11.3 | 0.13 | 0.15 | 0.15 | 100 | 1009.9 |
| 20260507120044 | 50 | 170 | 6.1 | 12.2 | 0.13 | 0.13 | 0.13 | 100 | 1010.4 |
| 20260507114548 | 50 | 214 | 5.2 | 11.3 | 0.09 | 0.09 | 0.09 | 100 | 1011.0 |
| 20260507113040 | 50 | 193 | 3.5 | 11.3 | 0.04 | 0.05 | 0.05 | 99 | 1011.2 |
| 20260507111551 | 49 | 197 | 1.7 | 10.4 | 0.02 | 0.02 | 0.02 | 99 | 1011.3 |
| 20260507110038 | 51 | 175 | 5.2 | 12.2 | 0.01 | 0.01 | 0.01 | 99 | 1011.0 |
| 20260507104537 | 50 | 185 | 3.5 | 8.7 | 0.01 | 0.01 | 0.01 | 99 | 1011.4 |
| 20260507103037 | 51 | 222 | 1.7 | 5.2 | 0.01 | 0.01 | 0.01 | 99 | 1011.4 |
| 20260507101537 | 49 | 241 | 2.6 | 3.5 | 0.00 | 0.00 | 0.00 | 99 | 1011.6 |
| 20260507100035 | 48 | 220 | 1.7 | 4.3 | 0.00 | 0.00 | 0.00 | 99 | 1011.5 |
| 20260507094534 | 47 | 199 | 2.6 | 5.2 | 0.00 | 0.00 | 0.00 | 98 | 1012.0 |
| 20260507093041 | 47 | 203 | 0.9 | 3.5 | 0.00 | 0.00 | 0.00 | 98 | 1012.1 |
| 20260507091537 | 50 | 233 | 0.0 | 3.5 | 0.00 | 0.00 | 0.00 | 99 | 1012.3 |
| 20260507090032 | 48 | 231 | 0.9 | 3.5 | 0.00 | 0.00 | 0.00 | 99 | 1012.1 |
| 20260507084532 | 48 | 229 | 0.0 | 2.6 | 0.00 | 0.00 | 0.00 | 98 | 1012.1 |
| 20260507083031 | 48 | 226 | 0.0 | 2.6 | 0.00 | 0.00 | 0.00 | 98 | 1011.9 |
| 20260507081535 | 47 | 227 | 0.0 | 1.7 | 0.00 | 0.00 | 0.00 | 98 | 1012.2 |
| 20260507080028 | 46 | 226 | 0.9 | 1.7 | 0.00 | 0.00 | 0.00 | 97 | 1012.5 |
| 20260507074525 | 46 | 204 | 0.9 | 3.5 | 0.00 | 0.00 | 0.00 | 97 | 1012.9 |
| 20260507073024 | 46 | 214 | 2.6 | 7.0 | 0.00 | 0.00 | 0.00 | 96 | 1013.2 |
| 20260507071527 | 49 | 175 | 4.3 | 7.8 | 0.00 | 0.00 | 0.00 | 96 | 1013.2 |
| 20260507070022 | 48 | 227 | 3.5 | 8.7 | 0.00 | 0.00 | 0.00 | 97 | 1013.5 |
| 20260507064521 | 49 | 185 | 2.6 | 5.2 | 0.00 | 0.00 | 0.00 | 95 | 1013.4 |
| 20260507063019 | 49 | 216 | 2.6 | 7.8 | 0.00 | 0.00 | 0.00 | 94 | 1013.7 |
| 20260507061519 | 52 | 191 | 3.5 | 7.0 | 0.00 | 0.00 | 0.00 | 95 | 1013.7 |
| 20260507060016 | 52 | 202 | 5.2 | 10.4 | 0.00 | 0.00 | 0.00 | 96 | 1014.1 |
| 20260507054513 | 51 | 231 | 5.2 | 12.2 | 0.00 | 0.00 | 0.00 | 96 | 1014.1 |
| 20260507053010 | 50 | 210 | 2.6 | 9.6 | 0.00 | 0.00 | 0.00 | 97 | 1014.3 |
| 20260507051507 | 49 | 221 | 4.3 | 11.3 | 0.00 | 0.00 | 0.00 | 96 | 1014.6 |
| 20260507050008 | 49 | 206 | 4.3 | 12.2 | 0.00 | 0.00 | 0.00 | 96 | 1014.7 |
| 20260507044504 | 49 | 185 | 7.0 | 13.0 | 0.00 | 0.00 | 0.00 | 96 | 1014.9 |